Date,TemperatureHighF,TemperatureAvgF,TemperatureLowF,DewpointHighF,DewpointAvgF,DewpointLowF,HumidityHigh,HumidityAvg,HumidityLow,PressureMaxIn,PressureMinIn,WindSpeedMaxMPH,WindSpeedAvgMPH,GustSpeedMaxMPH,PrecipitationSumIn
2013-3-1,37.6,27.5,13.6,19.9,14.6,5.8,73,59,45,30.45,30.24,33,13,39,0.00
2013-3-2,49.8,37.2,25.0,23.8,18.7,14.1,68,48,30,30.36,29.99,26,11,31,0.00
2013-3-3,47.5,37.6,28.1,24.8,18.2,13.1,75,47,27,30.00,29.54,31,11,46,0.00
2013-3-4,42.3,29.3,16.0,30.1,19.8,2.3,94,70,36,30.12,29.53,28,9,36,0.06
2013-3-5,49.1,28.3,10.1,11.6,2.4,-6.1,64,37,12,30.39,30.06,22,5,28,0.00
2013-3-6,53.2,35.4,17.6,18.3,10.6,4.5,61,38,18,30.14,29.74,20,4,30,0.00
2013-3-7,54.8,38.9,26.9,16.8,11.2,5.1,55,35,14,29.89,29.68,25,3,29,0.00
2013-3-8,48.5,33.3,22.1,29.7,20.1,11.9,95,62,29,29.92,29.39,21,2,31,0.00
2013-3-9,29.0,25.5,17.7,27.8,21.5,9.1,95,85,61,30.03,29.42,16,2,22,0.17
2013-3-10,35.3,24.0,14.9,16.7,10.3,4.6,65,56,43,30.19,29.97,38,21,40,0.00
2013-3-11,45.6,32.0,21.3,20.2,13.6,9.5,61,47,30,30.11,29.79,27,11,33,0.00
2013-3-12,48.5,38.3,29.1,21.9,18.0,14.9,68,45,26,30.10,29.85,19,7,30,0.00
2013-3-13,54.7,41.2,33.0,22.0,18.7,14.1,54,41,23,30.18,29.99,24,8,27,0.00
2013-3-14,59.9,45.6,31.1,21.9,14.6,4.1,55,32,11,30.28,29.98,20,6,29,0.00
2013-3-15,59.3,44.7,30.8,22.5,19.1,16.2,60,39,20,30.03,29.64,28,8,37,0.00
2013-3-16,42.8,37.0,32.4,34.9,26.7,18.4,90,67,38,29.81,29.63,26,3,26,0.04
2013-3-17,40.6,29.6,24.1,32.0,24.2,13.8,91,80,40,29.77,29.51,17,2,30,0.03
2013-3-18,37.0,29.2,22.6,20.3,12.8,7.2,77,51,32,29.92,29.63,29,7,31,0.00
2013-3-19,42.7,36.1,28.9,14.8,3.3,-9.1,55,28,11,29.97,29.83,17,10,26,0.00
2013-3-20,49.1,32.2,14.5,23.4,11.2,-4.3,55,42,23,30.28,29.60,25,6,32,0.00
2013-3-21,37.8,34.0,29.6,30.9,20.6,6.0,87,59,34,29.71,29.41,26,8,33,0.01
2013-3-22,40.9,29.4,16.8,20.3,8.0,-1.0,65,43,20,29.80,29.45,26,7,42,0.00
2013-3-23,25.2,19.3,13.4,15.6,10.8,5.8,85,70,52,30.09,29.54,15,6,23,0.00
2013-3-24,24.7,9.3,-5.1,4.9,-0.5,-9.7,93,66,38,30.42,30.12,19,4,26,0.05
2013-3-25,34.4,15.9,-0.1,7.5,-1.7,-9.0,65,48,20,30.48,30.16,20,9,23,0.00
2013-3-26,49.9,31.0,11.1,20.3,11.0,0.9,68,46,21,30.24,29.74,27,7,35,0.00
2013-3-27,53.0,40.0,27.9,23.9,18.0,12.9,72,44,21,29.94,29.72,17,5,24,0.00
2013-3-28,51.2,36.6,23.8,25.7,21.0,17.0,78,56,27,30.08,29.89,19,3,24,0.00
2013-3-29,55.4,42.0,25.7,26.6,23.5,19.2,76,50,27,30.11,29.89,23,9,33,0.00
2013-3-30,55.6,42.0,27.1,27.4,21.9,14.3,80,49,22,30.07,29.82,19,4,40,0.00
2013-3-31,58.0,44.2,23.8,25.5,16.0,1.6,76,38,10,30.06,29.77,15,5,24,0.00